Time,TemperatureF,DewpointF,PressureIn,WindDirection,WindDirectionDegrees,WindSpeedMPH,WindSpeedGustMPH,Humidity,HourlyPrecipIn,Conditions,Clouds,dailyrainin,SoftwareType,DateUTC
2013-03-16 00:03:00,31.0,-99.9,-100.00,North,-999,14.0,-999.0,0,-99.99,,,-99.99,,2013-03-16 05:03:00,
2013-03-16 00:13:00,30.0,-99.9,-100.00,North,-999,17.0,-999.0,0,-99.99,,,-99.99,,2013-03-16 05:13:00,
2013-03-16 00:22:00,30.0,-99.9,-100.00,North,-999,18.0,-999.0,0,-99.99,,,-99.99,,2013-03-16 05:22:00,
2013-03-16 00:32:00,29.0,-99.9,-100.00,North,-999,24.0,-999.0,0,-99.99,,,-99.99,,2013-03-16 05:32:00,
2013-03-16 00:42:00,29.0,-99.9,-100.00,South,175,27.0,-999.0,0,-99.99,,,-99.99,,2013-03-16 05:42:00,
2013-03-16 00:53:00,28.0,-99.9,-100.00,North,-999,21.0,-999.0,0,-99.99,,,-99.99,,2013-03-16 05:53:00,
2013-03-16 01:03:00,28.0,-99.9,-100.00,North,-999,22.0,-999.0,0,-99.99,,,-99.99,,2013-03-16 06:03:00,
2013-03-16 01:22:00,28.0,-99.9,-100.00,North,-999,15.0,-999.0,0,-99.99,,,-99.99,,2013-03-16 06:22:00,
2013-03-16 01:33:00,28.0,-99.9,-100.00,North,-999,21.0,-999.0,0,-99.99,,,-99.99,,2013-03-16 06:33:00,
2013-03-16 01:42:00,28.0,-99.9,-100.00,North,-999,19.0,-999.0,0,-99.99,,,-99.99,,2013-03-16 06:42:00,
2013-03-16 01:52:00,28.0,-99.9,-100.00,NNW,339,19.0,-999.0,0,-99.99,,,-99.99,,2013-03-16 06:52:00,
2013-03-16 02:02:00,27.0,-99.9,-100.00,North,-999,19.0,-999.0,0,-99.99,,,-99.99,,2013-03-16 07:02:00,
2013-03-16 02:12:00,27.0,-99.9,-100.00,North,-999,24.0,-999.0,0,-99.99,,,-99.99,,2013-03-16 07:12:00,
2013-03-16 02:22:00,26.0,-99.9,-100.00,NNW,341,21.0,-999.0,0,-99.99,,,-99.99,,2013-03-16 07:22:00,
2013-03-16 02:32:00,25.0,-99.9,-100.00,North,-999,22.0,-999.0,0,-99.99,,,-99.99,,2013-03-16 07:32:00,
2013-03-16 02:42:00,25.0,-99.9,-100.00,North,-999,22.0,-999.0,0,-99.99,,,-99.99,,2013-03-16 07:42:00,
2013-03-16 02:53:00,24.0,-99.9,-100.00,WNW,303,22.0,-999.0,0,-99.99,,,-99.99,,2013-03-16 07:53:00,
2013-03-16 03:03:00,24.0,-99.9,-100.00,North,-999,22.0,-999.0,0,-99.99,,,-99.99,,2013-03-16 08:03:00,
2013-03-16 03:12:00,24.0,-99.9,-100.00,North,-999,15.0,-999.0,0,-99.99,,,-99.99,,2013-03-16 08:12:00,
2013-03-16 03:23:00,23.0,-99.9,-100.00,North,-999,20.0,-999.0,0,-99.99,,,-99.99,,2013-03-16 08:23:00,
2013-03-16 03:33:00,23.0,-99.9,-100.00,North,-999,20.0,-999.0,0,-99.99,,,-99.99,,2013-03-16 08:33:00,
2013-03-16 03:43:00,23.0,-99.9,-100.00,North,-999,26.0,-999.0,0,-99.99,,,-99.99,,2013-03-16 08:43:00,
2013-03-16 03:53:00,23.0,-99.9,-100.00,North,-999,23.0,-999.0,0,-99.99,,,-99.99,,2013-03-16 08:53:00,
2013-03-16 04:02:00,22.0,-99.9,-100.00,North,-999,25.0,-999.0,0,-99.99,,,-99.99,,2013-03-16 09:02:00,
2013-03-16 04:12:00,22.0,-99.9,-100.00,NNW,339,19.0,-999.0,0,-99.99,,,-99.99,,2013-03-16 09:12:00,
2013-03-16 04:22:00,22.0,-99.9,-100.00,North,-999,21.0,-999.0,0,-99.99,,,-99.99,,2013-03-16 09:22:00,
2013-03-16 04:33:00,22.0,-99.9,-100.00,North,-999,18.0,-999.0,0,-99.99,,,-99.99,,2013-03-16 09:33:00,
2013-03-16 04:43:00,22.0,-99.9,-100.00,NNW,339,16.0,-999.0,0,-99.99,,,-99.99,,2013-03-16 09:43:00,
2013-03-16 04:53:00,22.0,-99.9,-100.00,West,260,13.0,-999.0,0,-99.99,,,-99.99,,2013-03-16 09:53:00,
2013-03-16 05:03:00,22.0,-99.9,-100.00,NNW,336,20.0,-999.0,0,-99.99,,,-99.99,,2013-03-16 10:03:00,
2013-03-16 05:12:00,22.0,-99.9,-100.00,NNW,333,13.0,-999.0,0,-99.99,,,-99.99,,2013-03-16 10:12:00,
2013-03-16 05:23:00,21.0,-99.9,-100.00,NNW,342,15.0,-999.0,0,-99.99,,,-99.99,,2013-03-16 10:23:00,
2013-03-16 05:33:00,21.0,-99.9,-100.00,NNW,333,20.0,-999.0,0,-99.99,,,-99.99,,2013-03-16 10:33:00,
2013-03-16 05:42:00,20.0,-99.9,-100.00,North,-999,14.0,-999.0,0,-99.99,,,-99.99,,2013-03-16 10:42:00,
2013-03-16 05:53:00,20.0,-99.9,-100.00,NNW,343,21.0,-999.0,0,-99.99,,,-99.99,,2013-03-16 10:53:00,
2013-03-16 06:03:00,20.0,-99.9,-100.00,NNW,339,18.0,-999.0,0,-99.99,,,-99.99,,2013-03-16 11:03:00,
2013-03-16 06:12:00,20.0,-99.9,-100.00,NNW,338,16.0,-999.0,0,-99.99,,,-99.99,,2013-03-16 11:12:00,
2013-03-16 06:22:00,20.0,-99.9,-100.00,NNW,341,22.0,-999.0,0,-99.99,,,-99.99,,2013-03-16 11:22:00,
2013-03-16 06:33:00,20.0,-99.9,-100.00,NNW,339,20.0,-999.0,0,-99.99,,,-99.99,,2013-03-16 11:33:00,
2013-03-16 06:43:00,19.0,-99.9,-100.00,NNW,342,21.0,-999.0,0,-99.99,,,-99.99,,2013-03-16 11:43:00,
2013-03-16 06:53:00,19.0,-99.9,-100.00,NNW,331,19.0,-999.0,0,-99.99,,,-99.99,,2013-03-16 11:53:00,
2013-03-16 07:02:00,19.0,-99.9,-100.00,NNW,335,25.0,-999.0,0,-99.99,,,-99.99,,2013-03-16 12:02:00,
2013-03-16 07:12:00,19.0,-99.9,-100.00,NNW,338,20.0,-999.0,0,-99.99,,,-99.99,,2013-03-16 12:12:00,
2013-03-16 07:23:00,18.0,-99.9,-100.00,NNW,336,17.0,-999.0,0,-99.99,,,-99.99,,2013-03-16 12:23:00,
2013-03-16 07:32:00,18.0,-99.9,-100.00,NNW,341,18.0,-999.0,0,-99.99,,,-99.99,,2013-03-16 12:32:00,
2013-03-16 07:43:00,18.0,-99.9,-100.00,North,-999,22.0,-999.0,0,-99.99,,,-99.99,,2013-03-16 12:43:00,
2013-03-16 07:53:00,18.0,-99.9,-100.00,North,-999,28.0,-999.0,0,-99.99,,,-99.99,,2013-03-16 12:53:00,
2013-03-16 08:03:00,19.0,-99.9,-100.00,NNW,342,18.0,-999.0,0,-99.99,,,-99.99,,2013-03-16 13:03:00,
2013-03-16 08:12:00,18.0,-99.9,-100.00,NNW,343,22.0,-999.0,0,-99.99,,,-99.99,,2013-03-16 13:12:00,
2013-03-16 08:23:00,18.0,-99.9,-100.00,North,-999,20.0,-999.0,0,-99.99,,,-99.99,,2013-03-16 13:23:00,
2013-03-16 08:32:00,18.0,-99.9,-100.00,NNW,337,16.0,-999.0,0,-99.99,,,-99.99,,2013-03-16 13:32:00,
2013-03-16 08:43:00,17.0,-99.9,-100.00,North,-999,30.0,-999.0,0,-99.99,,,-99.99,,2013-03-16 13:43:00,
2013-03-16 08:53:00,17.0,-99.9,-100.00,North,-999,15.0,-999.0,0,-99.99,,,-99.99,,2013-03-16 13:53:00,
2013-03-16 09:03:00,16.0,-99.9,-100.00,North,-999,19.0,-999.0,0,-99.99,,,-99.99,,2013-03-16 14:03:00,
2013-03-16 09:12:00,15.0,-99.9,-100.00,WNW,293,23.0,-999.0,0,-99.99,,,-99.99,,2013-03-16 14:12:00,
2013-03-16 09:22:00,15.0,-99.9,-100.00,North,-999,21.0,-999.0,0,-99.99,,,-99.99,,2013-03-16 14:22:00,
2013-03-16 09:32:00,15.0,-99.9,-100.00,South,175,23.0,-999.0,0,-99.99,,,-99.99,,2013-03-16 14:32:00,
2013-03-16 09:42:00,15.0,-99.9,-100.00,NNW,343,23.0,-999.0,0,-99.99,,,-99.99,,2013-03-16 14:42:00,
2013-03-16 09:53:00,15.0,-99.9,-100.00,North,-999,19.0,-999.0,0,-99.99,,,-99.99,,2013-03-16 14:53:00,
2013-03-16 10:03:00,15.0,-99.9,-100.00,North,-999,22.0,-999.0,0,-99.99,,,-99.99,,2013-03-16 15:03:00,
2013-03-16 10:13:00,15.0,-99.9,-100.00,North,-999,22.0,-999.0,0,-99.99,,,-99.99,,2013-03-16 15:13:00,
2013-03-16 10:23:00,15.0,-99.9,-100.00,South,176,17.0,-999.0,0,-99.99,,,-99.99,,2013-03-16 15:23:00,
2013-03-16 10:33:00,15.0,-99.9,-100.00,NNW,343,13.0,-999.0,0,-99.99,,,-99.99,,2013-03-16 15:33:00,
2013-03-16 10:44:00,16.0,-99.9,-100.00,NNE,21,15.0,-999.0,0,-99.99,,,-99.99,,2013-03-16 15:44:00,
2013-03-16 10:53:00,16.0,-99.9,-100.00,North,-999,18.0,-999.0,0,-99.99,,,-99.99,,2013-03-16 15:53:00,
2013-03-16 11:03:00,15.0,-99.9,-100.00,North,-999,11.0,-999.0,0,-99.99,,,-99.99,,2013-03-16 16:03:00,
2013-03-16 11:13:00,16.0,-99.9,-100.00,North,-999,14.0,-999.0,0,-99.99,,,-99.99,,2013-03-16 16:13:00,
2013-03-16 11:23:00,16.0,-99.9,-100.00,North,10,16.0,-999.0,0,-99.99,,,-99.99,,2013-03-16 16:23:00,
2013-03-16 11:34:00,17.0,-99.9,-100.00,SW,231,17.0,-999.0,0,-99.99,,,-99.99,,2013-03-16 16:34:00,
2013-03-16 11:43:00,17.0,-99.9,-100.00,NNE,13,18.0,-999.0,0,-99.99,,,-99.99,,2013-03-16 16:43:00,
2013-03-16 11:53:00,17.0,-99.9,-100.00,North,-999,19.0,-999.0,0,-99.99,,,-99.99,,2013-03-16 16:53:00,
2013-03-16 12:03:00,17.0,-99.9,-100.00,West,259,12.0,-999.0,0,-99.99,,,-99.99,,2013-03-16 17:03:00,
2013-03-16 12:13:00,18.0,-99.9,-100.00,NNW,343,21.0,-999.0,0,-99.99,,,-99.99,,2013-03-16 17:13:00,
2013-03-16 12:23:00,17.0,-99.9,-100.00,West,259,13.0,-999.0,0,-99.99,,,-99.99,,2013-03-16 17:23:00,
2013-03-16 12:33:00,17.0,-99.9,-100.00,West,259,13.0,-999.0,0,-99.99,,,-99.99,,2013-03-16 17:33:00,
2013-03-16 12:43:00,18.0,-99.9,-100.00,East,90,15.0,-999.0,0,-99.99,,,-99.99,,2013-03-16 17:43:00,
2013-03-16 12:53:00,18.0,-99.9,-100.00,South,175,15.0,-999.0,0,-99.99,,,-99.99,,2013-03-16 17:53:00,
2013-03-16 13:03:00,18.0,-99.9,-100.00,NNE,18,16.0,-999.0,0,-99.99,,,-99.99,,2013-03-16 18:03:00,
2013-03-16 13:13:00,19.0,-99.9,-100.00,NNE,29,11.0,-999.0,0,-99.99,,,-99.99,,2013-03-16 18:13:00,
2013-03-16 13:23:00,19.0,-99.9,-100.00,East,88,12.0,-999.0,0,-99.99,,,-99.99,,2013-03-16 18:23:00,
2013-03-16 13:33:00,20.0,-99.9,-100.00,West,260,15.0,-999.0,0,-99.99,,,-99.99,,2013-03-16 18:33:00,
2013-03-16 13:43:00,20.0,-99.9,-100.00,North,7,14.0,-999.0,0,-99.99,,,-99.99,,2013-03-16 18:43:00,
2013-03-16 13:53:00,20.0,-99.9,-100.00,NNE,12,14.0,-999.0,0,-99.99,,,-99.99,,2013-03-16 18:53:00,
2013-03-16 14:02:00,20.0,-99.9,-100.00,NNE,15,13.0,-999.0,0,-99.99,,,-99.99,,2013-03-16 19:02:00,
2013-03-16 14:12:00,21.0,-99.9,-100.00,East,81,15.0,-999.0,0,-99.99,,,-99.99,,2013-03-16 19:12:00,
2013-03-16 14:23:00,21.0,-99.9,-100.00,NNE,23,10.0,-999.0,0,-99.99,,,-99.99,,2013-03-16 19:23:00,
2013-03-16 14:33:00,22.0,-99.9,-100.00,NNW,337,14.0,-999.0,0,-99.99,,,-99.99,,2013-03-16 19:33:00,
2013-03-16 14:43:00,22.0,-99.9,-100.00,North,-999,13.0,-999.0,0,-99.99,,,-99.99,,2013-03-16 19:43:00,
2013-03-16 14:53:00,23.0,-99.9,-100.00,North,-999,10.0,-999.0,0,-99.99,,,-99.99,,2013-03-16 19:53:00,
2013-03-16 15:03:00,22.0,-99.9,-100.00,West,259,10.0,-999.0,0,-99.99,,,-99.99,,2013-03-16 20:03:00,
2013-03-16 15:13:00,22.0,-99.9,-100.00,North,-999,17.0,-999.0,0,-99.99,,,-99.99,,2013-03-16 20:13:00,
2013-03-16 15:22:00,22.0,-99.9,-100.00,North,-999,17.0,-999.0,0,-99.99,,,-99.99,,2013-03-16 20:22:00,
2013-03-16 15:33:00,22.0,-99.9,-100.00,North,-999,17.0,-999.0,0,-99.99,,,-99.99,,2013-03-16 20:33:00,
2013-03-16 15:43:00,23.0,-99.9,-100.00,North,-999,11.0,-999.0,0,-99.99,,,-99.99,,2013-03-16 20:43:00,
2013-03-16 15:53:00,23.0,-99.9,-100.00,North,-999,13.0,-999.0,0,-99.99,,,-99.99,,2013-03-16 20:53:00,
2013-03-16 16:03:00,23.0,-99.9,-100.00,North,-999,18.0,-999.0,0,-99.99,,,-99.99,,2013-03-16 21:03:00,
2013-03-16 16:13:00,22.0,-99.9,-100.00,North,-999,16.0,-999.0,0,-99.99,,,-99.99,,2013-03-16 21:13:00,
2013-03-16 16:23:00,23.0,-99.9,-100.00,North,-999,13.0,-999.0,0,-99.99,,,-99.99,,2013-03-16 21:23:00,
2013-03-16 16:33:00,23.0,-99.9,-100.00,North,4,19.0,-999.0,0,-99.99,,,-99.99,,2013-03-16 21:33:00,
2013-03-16 16:44:00,23.0,-99.9,-100.00,NNE,12,11.0,-999.0,0,-99.99,,,-99.99,,2013-03-16 21:44:00,
2013-03-16 16:53:00,23.0,-99.9,-100.00,West,259,18.0,-999.0,0,-99.99,,,-99.99,,2013-03-16 21:53:00,
2013-03-16 17:04:00,23.0,-99.9,-100.00,North,-999,10.0,-999.0,0,-99.99,,,-99.99,,2013-03-16 22:04:00,
2013-03-16 17:13:00,23.0,-99.9,-100.00,West,259,11.0,-999.0,0,-99.99,,,-99.99,,2013-03-16 22:13:00,
2013-03-16 17:23:00,23.0,-99.9,-100.00,East,95,9.0,-999.0,0,-99.99,,,-99.99,,2013-03-16 22:23:00,
2013-03-16 17:33:00,23.0,-99.9,-100.00,North,-999,8.0,-999.0,0,-99.99,,,-99.99,,2013-03-16 22:33:00,
2013-03-16 17:43:00,23.0,-99.9,-100.00,North,6,15.0,-999.0,0,-99.99,,,-99.99,,2013-03-16 22:43:00,
2013-03-16 17:53:00,23.0,-99.9,-100.00,North,10,14.0,-999.0,0,-99.99,,,-99.99,,2013-03-16 22:53:00,
2013-03-16 18:03:00,23.0,-99.9,-100.00,East,88,11.0,-999.0,0,-99.99,,,-99.99,,2013-03-16 23:03:00,
2013-03-16 18:13:00,23.0,-99.9,-100.00,South,173,9.0,-999.0,0,-99.99,,,-99.99,,2013-03-16 23:13:00,
2013-03-16 18:23:00,22.0,-99.9,-100.00,East,94,13.0,-999.0,0,-99.99,,,-99.99,,2013-03-16 23:23:00,
2013-03-16 18:33:00,22.0,-99.9,-100.00,North,-999,11.0,-999.0,0,-99.99,,,-99.99,,2013-03-16 23:33:00,
2013-03-16 18:43:00,22.0,-99.9,-100.00,NNE,15,12.0,-999.0,0,-99.99,,,-99.99,,2013-03-16 23:43:00,
2013-03-16 18:53:00,22.0,-99.9,-100.00,NNE,14,13.0,-999.0,0,-99.99,,,-99.99,,2013-03-16 23:53:00,
2013-03-16 19:02:00,22.0,-99.9,-100.00,North,-999,15.0,-999.0,0,-99.99,,,-99.99,,2013-03-17 00:02:00,
2013-03-16 19:13:00,21.0,-99.9,-100.00,North,-999,12.0,-999.0,0,-99.99,,,-99.99,,2013-03-17 00:13:00,
2013-03-16 19:23:00,21.0,-99.9,-100.00,North,5,15.0,-999.0,0,-99.99,,,-99.99,,2013-03-17 00:23:00,
2013-03-16 19:33:00,21.0,-99.9,-100.00,North,-999,12.0,-999.0,0,-99.99,,,-99.99,,2013-03-17 00:33:00,
2013-03-16 19:43:00,21.0,-99.9,-100.00,North,-999,12.0,-999.0,0,-99.99,,,-99.99,,2013-03-17 00:43:00,
2013-03-16 19:53:00,21.0,-99.9,-100.00,North,-999,13.0,-999.0,0,-99.99,,,-99.99,,2013-03-17 00:53:00,
2013-03-16 20:03:00,20.0,-99.9,-100.00,NNE,14,14.0,-999.0,0,-99.99,,,-99.99,,2013-03-17 01:03:00,
2013-03-16 20:13:00,20.0,-99.9,-100.00,NNE,18,14.0,-999.0,0,-99.99,,,-99.99,,2013-03-17 01:13:00,
2013-03-16 20:23:00,20.0,-99.9,-100.00,NNE,27,13.0,-999.0,0,-99.99,,,-99.99,,2013-03-17 01:23:00,
2013-03-16 20:33:00,20.0,-99.9,-100.00,NNE,27,15.0,-999.0,0,-99.99,,,-99.99,,2013-03-17 01:33:00,
2013-03-16 20:43:00,20.0,-99.9,-100.00,NNE,14,12.0,-999.0,0,-99.99,,,-99.99,,2013-03-17 01:43:00,
2013-03-16 20:53:00,19.0,-99.9,-100.00,North,11,14.0,-999.0,0,-99.99,,,-99.99,,2013-03-17 01:53:00,
2013-03-16 21:03:00,19.0,-99.9,-100.00,North,8,14.0,-999.0,0,-99.99,,,-99.99,,2013-03-17 02:03:00,
2013-03-16 21:13:00,20.0,-99.9,-100.00,North,8,14.0,-999.0,0,-99.99,,,-99.99,,2013-03-17 02:13:00,
2013-03-16 21:23:00,19.0,-99.9,-100.00,North,8,12.0,-999.0,0,-99.99,,,-99.99,,2013-03-17 02:23:00,
2013-03-16 21:33:00,19.0,-99.9,-100.00,North,4,12.0,-999.0,0,-99.99,,,-99.99,,2013-03-17 02:33:00,
2013-03-16 21:43:00,19.0,-99.9,-100.00,NNE,16,10.0,-999.0,0,-99.99,,,-99.99,,2013-03-17 02:43:00,
2013-03-16 21:53:00,19.0,-99.9,-100.00,NNE,17,13.0,-999.0,0,-99.99,,,-99.99,,2013-03-17 02:53:00,
2013-03-16 22:03:00,19.0,-99.9,-100.00,NNE,22,10.0,-999.0,0,-99.99,,,-99.99,,2013-03-17 03:03:00,
2013-03-16 22:12:00,19.0,-99.9,-100.00,NNE,21,12.0,-999.0,0,-99.99,,,-99.99,,2013-03-17 03:12:00,
2013-03-16 22:23:00,19.0,-99.9,-100.00,NNE,18,13.0,-999.0,0,-99.99,,,-99.99,,2013-03-17 03:23:00,
2013-03-16 22:34:00,18.0,-99.9,-100.00,NNE,22,10.0,-999.0,0,-99.99,,,-99.99,,2013-03-17 03:34:00,
2013-03-16 22:43:00,18.0,-99.9,-100.00,NNE,33,13.0,-999.0,0,-99.99,,,-99.99,,2013-03-17 03:43:00,
2013-03-16 22:53:00,17.0,-99.9,-100.00,NNE,33,10.0,-999.0,0,-99.99,,,-99.99,,2013-03-17 03:53:00,
2013-03-16 23:03:00,17.0,-99.9,-100.00,NE,40,13.0,-999.0,0,-99.99,,,-99.99,,2013-03-17 04:03:00,
2013-03-16 23:13:00,17.0,-99.9,-100.00,NE,51,15.0,-999.0,0,-99.99,,,-99.99,,2013-03-17 04:13:00,
2013-03-16 23:23:00,16.0,-99.9,-100.00,NNE,28,14.0,-999.0,0,-99.99,,,-99.99,,2013-03-17 04:23:00,
2013-03-16 23:33:00,16.0,-99.9,-100.00,NE,36,10.0,-999.0,0,-99.99,,,-99.99,,2013-03-17 04:33:00,
2013-03-16 23:43:00,16.0,-99.9,-100.00,NE,39,8.0,-999.0,0,-99.99,,,-99.99,,2013-03-17 04:43:00,
2013-03-16 23:53:00,16.0,-99.9,-100.00,NNE,26,14.0,-999.0,0,-99.99,,,-99.99,,2013-03-17 04:53:00,